Regional Weather Roundup
Issued by NWS Newport/Morehead, NC

Current Version | Previous Version | Text Only | Print | Product List | Glossary On
Versions: 1 2 3 4 5 6 7 8 9 10 11 12 13 14 15 16 17 18 19 20 21 22 23 24 25 26 27 28 29 30 31 32 33 34 35 36 37 38 39 40 41 42 43 44 45 46 47 48 49 50
000 ASUS42 KMHX 291725 RWRMHX WEATHER ROUNDUP FOR EASTERN NORTH CAROLINA NATIONAL WEATHER SERVICE NEWPORT/MOREHEAD CITY NC 100 PM EDT SUN MAY 29 2016 NOTE: "FAIR" INDICATES FEW OR NO CLOUDS BELOW 12,000 FEET WITH NO SIGNIFICANT WEATHER AND/OR OBSTRUCTIONS TO VISIBILITY NCZ015>017-031-032-045>047-102-103-291800- NORTH COAST CITY SKY/WX TMP DP RH WIND PRES REMARKS EDENTON RAIN N/A N/A N/A SE5 30.10F ELIZABETH CITY RAIN 74 72 93 SE5 30.11F FOG KITTY HAWK MOSUNNY 85 71 62 SE12G20 30.09F MANTEO NOT AVBL $$ NCZ045>047-081-094-103-104-291800- CENTRAL COAST CITY SKY/WX TMP DP RH WIND PRES REMARKS FRISCO SUNNY 85 74 69 S12 30.11S $$ NCZ095-097-098-100-101-291800- SOUTHERN COAST CITY SKY/WX TMP DP RH WIND PRES REMARKS BEAUFORT MOSUNNY 81 74 79 S15G24 30.08S CEDAR ISLAND NOT AVBL JACKSONVILLE PTSUNNY 82 71 69 SE18G24 30.05F PINEY ISLAND NOT AVBL WILMINGTON LGT RAIN 77 72 84 SE12 30.04S $$ NCZ011>013-027>030-043-044-078>080-089-090>093-098-291800- COASTAL PLAIN CITY SKY/WX TMP DP RH WIND PRES REMARKS AHOSKIE RAIN 72 70 95 CALM 30.09S CLINTON MOSUNNY 83 75 77 E7 30.03F ELIZABETHTOWN PTSUNNY 82 70 67 SE22 30.02R GOLDSBORO LGT RAIN 77 77 100 E8 30.04F GREENVILLE LGT RAIN 73 73 100 SE5 30.09F HAVELOCK PTSUNNY 83 73 72 S14G23 30.08S KENANSVILLE PTSUNNY 83 72 69 SE7 30.05S KINSTON CLOUDY 77 73 88 E6 30.07F NEW BERN PTSUNNY 83 71 67 S14G20 30.07F RICHLANDS PTSUNNY 83 74 74 SE13G20 30.05S ROCKY MOUNT LGT RAIN 74 73 97 VRB5 30.08F FOG WASHINGTON CLOUDY 77 73 88 E6 30.08S WHITEVILLE PTSUNNY 78 72 84 SE7 30.01F $$ AMZ130-135-150-152-154-156-158-170-250-252-270-ANZ085-086-088-633-658-670-291800- MARINE OBSERVATIONS STATION/POSITION TIME TEMP WIND PRES WAVE SWELL AIR SEA DIR/SP/G HT/PER HT/PER (UTC) (F) (DEG/KT/KT) (MB) (FT/S) (FT/S) CHESAPEAKE LIGHT 1700 71 130/ 15/ 16 1020.5 64 E VA BEACH 1650 69 65 130/ 6/ 8 1020.3 4/ 8 3/ 8 DUCK 1700 73 62 130/ 11/ 12 1018.8 2 E DUCK 1611 68 N/A 3/ 8 OREGON INLET 1700 79 72 110/ 9/ 13 1019.4 13E OREGON INLT 1700 70 N/A 4/ 8 3/ 8 HATTERAS CG 1700 77 76 140/ 10/ 15 1019.0 DIAMOND BUOY 1650 79 75 160/ 16/ 17 1019.1 5/ 7 2/ 8 CAPE LOOKOUT 1700 77 150/ 13/ 15 1018.2 BEAUFORT LAB 1700 79 75 160/ 13/ 17 1017.7 30 SE NEW RVR IN 1625 75 N/A 7/ 7 27 SE WRIGHTSVLE 1708 78 76 140/ 14/ 23 1017.1 5 SE WRIGHTSVLE 1608 77 75 140/ 10/ 14 1017.9 225 S CAPE HAT 1650 76 76 130/ 14/ 16 1019.3 4/ 7 2/ 7 41 SE CHARLESTON 1650 74 77 200/ 19/ 23 1013.8 6/ 8 3/ 8 $$

USA.gov is the U.S. government's official web portal to all federal, state and local government web resources and services.